| time (UTC) | temp F | wind direction | speed knots | gust knots | rain 1hr in | rain 24hr in | rain mn in | humidity % | barometer mb |
| 20260505052736 | 51 | 0 | 0.0 | 0.0 | 0.01 | 0.28 | 0.16 | 98 | 1009.8 |
| 20260505035736 | 51 | 339 | 0.0 | 1.7 | 0.01 | 0.27 | 0.15 | 98 | 1010.2 |
| 20260505032735 | 51 | 347 | 0.9 | 2.6 | 0.03 | 0.25 | 0.14 | 97 | 1010.4 |
| 20260505025735 | 51 | 10 | 0.0 | 3.5 | 0.05 | 0.27 | 0.14 | 96 | 1010.7 |
| 20260505022736 | 51 | 11 | 2.6 | 2.6 | 0.04 | 0.23 | 0.10 | 96 | 1010.9 |
| 20260505015736 | 51 | 332 | 0.0 | 2.6 | 0.04 | 0.21 | 0.08 | 95 | 1010.8 |
| 20260505012736 | 51 | 312 | 0.0 | 3.5 | 0.04 | 0.18 | 0.05 | 94 | 1011.2 |
| 20260505005736 | 51 | 7 | 0.0 | 2.6 | 0.03 | 0.16 | 0.03 | 92 | 1011.3 |
| 20260505002735 | 51 | 26 | 0.9 | 2.6 | 0.01 | 0.14 | 0.01 | 90 | 1011.6 |
| 20260504235736 | 52 | 318 | 0.0 | 2.6 | 0.00 | 0.12 | 0.00 | 88 | 1011.7 |
| 20260504232735 | 51 | 283 | 0.0 | 0.9 | 0.00 | 0.12 | 0.00 | 88 | 1011.7 |
| 20260504225735 | 51 | 338 | 0.0 | 0.9 | 0.00 | 0.12 | 0.00 | 88 | 1011.5 |
| 20260504222736 | 50 | 325 | 0.0 | 1.7 | 0.00 | 0.12 | 0.00 | 87 | 1011.6 |
| 20260504215735 | 50 | 0 | 0.0 | 0.0 | 0.00 | 0.12 | 0.12 | 84 | 1012.0 |
| 20260504212736 | 51 | 0 | 0.0 | 0.0 | 0.00 | 0.12 | 0.12 | 83 | 1012.0 |
| 20260504205736 | 52 | 334 | 0.0 | 0.0 | 0.00 | 0.12 | 0.12 | 83 | 1012.4 |
| 20260504202735 | 52 | 199 | 0.0 | 0.9 | 0.00 | 0.12 | 0.12 | 82 | 1012.4 |
| 20260504195735 | 53 | 145 | 0.0 | 0.0 | 0.00 | 0.12 | 0.12 | 81 | 1012.4 |
| 20260504192736 | 54 | 287 | 0.0 | 0.9 | 0.00 | 0.12 | 0.12 | 80 | 1012.4 |
| 20260504185735 | 55 | 55 | 0.0 | 4.3 | 0.00 | 0.12 | 0.12 | 77 | 1012.5 |
| 20260504182736 | 56 | 189 | 0.0 | 1.7 | 0.00 | 0.12 | 0.12 | 75 | 1012.4 |
| 20260504175736 | 57 | 325 | 0.9 | 4.3 | 0.00 | 0.12 | 0.12 | 73 | 1012.4 |
| 20260504172736 | 58 | 296 | 0.9 | 6.1 | 0.00 | 0.12 | 0.12 | 73 | 1012.2 |